Hourly Weather Adra

Today, 7 March, Sunday

Time Temperature Precipitation Wind Pressure Humidity
00:00 +14°C° 0 mm 5 mps 761 mmHg 89%
01:00 +14°C° 0.2 mm 5 mps 761 mmHg 89%
02:00 +14°C° 0.2 mm 4 mps 761 mmHg 89%
03:00 +14°C° 0.2 mm 4 mps 760 mmHg 89%
04:00 +14°C° 0.4 mm 3 mps 760 mmHg 89%
05:00 +14°C° 0.4 mm 3 mps 760 mmHg 90%
06:00 +15°C° 0 mm 2 mps 760 mmHg 91%
07:00 +15°C° 0.6 mm 2 mps 760 mmHg 89%
08:00 +15°C° 0.6 mm 2 mps 760 mmHg 87%
09:00 +15°C° 0.6 mm 2 mps 760 mmHg 85%
10:00 +16°C° 0.3 mm 2 mps 760 mmHg 86%
11:00 +16°C° 0.3 mm 2 mps 760 mmHg 86%
12:00 +16°C° 0 mm 1 mps 760 mmHg 84%
13:00 +16°C° 0.2 mm 2 mps 760 mmHg 83%
14:00 +16°C° 0.2 mm 2 mps 759 mmHg 82%
15:00 +17°C° 0.2 mm 3 mps 758 mmHg 81%
16:00 +16°C° 0.1 mm 3 mps 758 mmHg 84%
17:00 +16°C° 0.1 mm 3 mps 758 mmHg 87%
18:00 +16°C° 0.1 mm 3 mps 758 mmHg 90%
19:00 +15°C° 0.3 mm 2 mps 759 mmHg 91%
20:00 +15°C° 0.3 mm 2 mps 759 mmHg 93%
21:00 +15°C° 0.3 mm 2 mps 760 mmHg 94%
22:00 +15°C° 0.8 mm 2 mps 759 mmHg 93%
23:00 +15°C° 0.8 mm 2 mps 759 mmHg 92%

Tomorrow, 8 March, Monday

Time Temperature Precipitation Wind Pressure Humidity
00:00 +14°C° 0.8 mm 1 mps 759 mmHg 91%
01:00 +14°C° 0.8 mm 2 mps 759 mmHg 91%
02:00 +14°C° 0.8 mm 2 mps 758 mmHg 90%
03:00 +13°C° 0.8 mm 2 mps 758 mmHg 90%
04:00 +13°C° 0.3 mm 2 mps 758 mmHg 89%
05:00 +13°C° 0.3 mm 2 mps 758 mmHg 87%
06:00 +12°C° 0.3 mm 2 mps 758 mmHg 85%
07:00 +14°C° 0.1 mm 2 mps 758 mmHg 78%
08:00 +15°C° 0.1 mm 2 mps 758 mmHg 72%
09:00 +16°C° 0.1 mm 2 mps 759 mmHg 65%
10:00 +17°C° 0.1 mm 2 mps 759 mmHg 63%
11:00 +17°C° 0.1 mm 2 mps 758 mmHg 61%
12:00 +18°C° 0.1 mm 2 mps 758 mmHg 58%
13:00 +18°C° 0.2 mm 3 mps 758 mmHg 62%
14:00 +18°C° 0.2 mm 4 mps 757 mmHg 65%
15:00 +17°C° 0.2 mm 5 mps 757 mmHg 68%
16:00 +17°C° 0.4 mm 4 mps 757 mmHg 71%
17:00 +17°C° 0.4 mm 4 mps 757 mmHg 74%
18:00 +16°C° 0.4 mm 3 mps 757 mmHg 78%
19:00 +16°C° 0.2 mm 3 mps 758 mmHg 80%
20:00 +15°C° 0.2 mm 2 mps 758 mmHg 82%
21:00 +15°C° 0.2 mm 2 mps 759 mmHg 84%
22:00 +15°C° 0.2 mm 2 mps 759 mmHg 87%
23:00 +14°C° 0.2 mm 2 mps 759 mmHg 90%

Day after tomorrow, 9 March, Tuesday

Time Temperature Precipitation Wind Pressure Humidity
00:00 +13°C° 0.2 mm 2 mps 759 mmHg 93%
01:00 +13°C° 0.1 mm 2 mps 759 mmHg 93%
02:00 +13°C° 0.1 mm 2 mps 759 mmHg 94%
03:00 +13°C° 0.1 mm 2 mps 759 mmHg 94%
04:00 +13°C° 0.1 mm 2 mps 759 mmHg 93%
05:00 +13°C° 0.1 mm 2 mps 759 mmHg 92%
06:00 +12°C° 0.1 mm 1 mps 760 mmHg 91%
07:00 +13°C° 0.1 mm 2 mps 760 mmHg 88%
08:00 +13°C° 0.1 mm 3 mps 760 mmHg 86%
09:00 +14°C° 0.1 mm 4 mps 761 mmHg 84%
10:00 +13°C° 0.3 mm 5 mps 761 mmHg 84%
11:00 +13°C° 0.3 mm 6 mps 761 mmHg 85%
12:00 +13°C° 0.3 mm 6 mps 761 mmHg 86%
13:00 +13°C° 0.4 mm 6 mps 761 mmHg 85%
14:00 +14°C° 0.4 mm 5 mps 761 mmHg 85%
15:00 +14°C° 0.4 mm 5 mps 761 mmHg 84%
16:00 +13°C° 0.4 mm 4 mps 761 mmHg 85%
17:00 +13°C° 0.4 mm 4 mps 761 mmHg 85%
18:00 +13°C° 0.4 mm 3 mps 761 mmHg 86%
19:00 +12°C° 0 mm 3 mps 762 mmHg 88%
20:00 +12°C° 0 mm 3 mps 763 mmHg 90%
21:00 +11°C° 0 mm 3 mps 763 mmHg 92%
22:00 +11°C° 0 mm 3 mps 764 mmHg 91%
23:00 +12°C° 0 mm 2 mps 764 mmHg 91%

10 March, Wednesday

Time Temperature Precipitation Wind Pressure Humidity
00:00 +12°C° 0 mm 2 mps 764 mmHg 90%
01:00 +12°C° 0 mm 2 mps 764 mmHg 89%
02:00 +12°C° 0 mm 2 mps 764 mmHg 88%
03:00 +11°C° 0 mm 1 mps 764 mmHg 86%
04:00 +11°C° 0 mm 1 mps 764 mmHg 86%
05:00 +11°C° 0 mm 1 mps 764 mmHg 86%
06:00 +11°C° 0 mm 1 mps 764 mmHg 86%
07:00 +12°C° 0 mm 1 mps 765 mmHg 82%
08:00 +14°C° 0 mm 1 mps 765 mmHg 78%
09:00 +15°C° 0 mm 1 mps 766 mmHg 74%
10:00 +16°C° 0 mm 1 mps 766 mmHg 73%
11:00 +18°C° 0 mm 1 mps 766 mmHg 72%
12:00 +18°C° 0 mm 1 mps 766 mmHg 71%
13:00 +18°C° 0.1 mm 1 mps 766 mmHg 74%
14:00 +18°C° 0.1 mm 1 mps 766 mmHg 77%
15:00 +18°C° 0.1 mm 1 mps 765 mmHg 81%
16:00 +16°C° 0 mm 1 mps 765 mmHg 82%
17:00 +16°C° 0 mm 1 mps 766 mmHg 84%
18:00 +15°C° 0 mm 1 mps 766 mmHg 86%
19:00 +15°C° 0 mm 1 mps 766 mmHg 86%
20:00 +14°C° 0 mm 1 mps 767 mmHg 86%
21:00 +13°C° 0 mm 0 mps 768 mmHg 86%
22:00 +13°C° 0 mm 1 mps 768 mmHg 85%
23:00 +13°C° 0 mm 1 mps 768 mmHg 84%

11 March, Thursday

Time Temperature Precipitation Wind Pressure Humidity
00:00 +13°C° 0 mm 1 mps 768 mmHg 83%
01:00 +12°C° 0 mm 1 mps 768 mmHg 80%
02:00 +12°C° 0 mm 1 mps 768 mmHg 78%
03:00 +12°C° 0 mm 1 mps 767 mmHg 75%
04:00 +12°C° 0 mm 1 mps 767 mmHg 73%
05:00 +12°C° 0 mm 2 mps 767 mmHg 71%
06:00 +12°C° 0 mm 2 mps 768 mmHg 69%
07:00 +14°C° 0 mm 2 mps 768 mmHg 64%
08:00 +16°C° 0 mm 1 mps 768 mmHg 60%
09:00 +19°C° 0 mm 1 mps 768 mmHg 55%
10:00 +18°C° 0 mm 2 mps 768 mmHg 55%
11:00 +19°C° 0 mm 2 mps 768 mmHg 55%
12:00 +20°C° 0 mm 3 mps 768 mmHg 56%
13:00 +20°C° 0 mm 3 mps 768 mmHg 58%
14:00 +20°C° 0 mm 3 mps 767 mmHg 61%
15:00 +20°C° 0 mm 3 mps 767 mmHg 63%
16:00 +19°C° 0 mm 2 mps 766 mmHg 68%
17:00 +19°C° 0 mm 2 mps 766 mmHg 72%
18:00 +18°C° 0 mm 2 mps 766 mmHg 77%
19:00 +17°C° 0 mm 2 mps 767 mmHg 76%
20:00 +16°C° 0 mm 2 mps 767 mmHg 75%
21:00 +16°C° 0 mm 2 mps 767 mmHg 74%
22:00 +15°C° 0 mm 2 mps 767 mmHg 73%
23:00 +15°C° 0 mm 2 mps 767 mmHg 72%

12 March, Friday

Time Temperature Precipitation Wind Pressure Humidity
00:00 +15°C° 0 mm 2 mps 766 mmHg 71%
01:00 +15°C° 0 mm 2 mps 766 mmHg 70%
02:00 +15°C° 0 mm 2 mps 766 mmHg 69%
03:00 +14°C° 0 mm 2 mps 765 mmHg 68%
04:00 +14°C° 0 mm 2 mps 765 mmHg 66%
05:00 +14°C° 0 mm 2 mps 765 mmHg 64%
06:00 +14°C° 0 mm 2 mps 765 mmHg 62%
07:00 +16°C° 0 mm 2 mps 765 mmHg 57%
08:00 +18°C° 0 mm 2 mps 765 mmHg 52%
09:00 +20°C° 0 mm 2 mps 765 mmHg 47%
10:00 +21°C° 0 mm 3 mps 765 mmHg 48%
11:00 +22°C° 0 mm 3 mps 765 mmHg 49%
12:00 +22°C° 0 mm 3 mps 764 mmHg 50%
13:00 +22°C° 0 mm 3 mps 764 mmHg 52%
14:00 +24°C° 0 mm 3 mps 763 mmHg 55%
15:00 +24°C° 0 mm 3 mps 763 mmHg 57%
16:00 +21°C° 0 mm 3 mps 762 mmHg 62%
17:00 +20°C° 0 mm 3 mps 762 mmHg 67%
18:00 +19°C° 0 mm 3 mps 762 mmHg 72%
19:00 +19°C° 0 mm 3 mps 762 mmHg 70%
20:00 +18°C° 0 mm 3 mps 763 mmHg 67%
21:00 +17°C° 0 mm 3 mps 763 mmHg 65%
22:00 +17°C° 0 mm 2 mps 763 mmHg 63%
23:00 +17°C° 0 mm 2 mps 763 mmHg 62%
Show more